paginasblancas.com.ar alexa rank chart, paginasblancas.com.ar alexa rank daily changes

paginasblancas.com.ar alexa rank chart, paginasblancas.com.ar alexa rank daily changes

paginasblancas.com.ar
Actual rank:
72 212

RANK HISTORY

Date Rank Diff
2017/10/18 72 212 +429
2017/10/17 71 783 +1 015
2017/10/16 70 768 +2 237
2017/10/14 68 531 +317
2017/10/13 68 214 +278
2017/10/12 67 936 -374
2017/10/11 68 310 -634
2017/10/10 68 944 +976
2017/10/09 67 968 +1 000
2017/10/08 66 968 -189
2017/10/07 67 157 -944
2017/10/06 68 101 +377
2017/10/05 67 724 -1 269
2017/10/04 68 993 -610
2017/10/03 69 603 +1 578
2017/10/02 68 025 -15
2017/10/01 68 040 +339
2017/09/30 67 701 +773
2017/09/29 66 928 -878
2017/09/28 67 806 -483
2017/09/27 68 289 -395
2017/09/26 68 684 +662
2017/09/25 68 022 +1 697
2017/09/24 66 325 +287
2017/09/23 66 038 -2 260
2017/09/22 68 298 -1 203
2017/09/20 69 501 +658
2017/09/19 68 843 +952
2017/09/18 67 891 +488
2017/09/17 67 403 -81
2017/09/16 67 484 -539
2017/09/15 68 023 -1 159
2017/09/14 69 182 +406
2017/09/13 68 776 -179
2017/09/12 68 955 +867
2017/09/11 68 088 +261
2017/09/10 67 827 +784
2017/09/09 67 043 +405
2017/09/08 66 638 +78
2017/09/07 66 560 -1 025
2017/09/06 67 585 -450
2017/09/05 68 035 +871
2017/09/04 67 164 +2 245
2017/09/03 64 919 -455
2017/09/02 65 374 +539
2017/09/01 64 835 -1 362
2017/08/31 66 197 -564
2017/08/30 66 761 -775
2017/08/29 67 536 +1 091
2017/08/28 66 445 +74
2017/08/27 66 371 +801
2017/08/26 65 570 +829
2017/08/25 64 741 -1 665
2017/08/24 66 406 -286
2017/08/23 66 692 +591
2017/08/22 66 101 +1 209
2017/08/21 64 892 +1 255
2017/08/20 63 637 -1 029
2017/08/19 64 666

WIDGET FOR YOUR SITE

DOMAINS WITH THE NEAREST RANK

Domain Rank
agendor.com.br 72 207
bay12games.com 72 208
ktvc8.com 72 209
slimwareutilities.com 72 210
eetgroup.com 72 211
paginasblancas.com.ar 72 212
rba.hr 72 213
motorcyclistonline.tv 72 214
chiptuner.ru 72 215
6speedonline.com 72 216
wemgehoert.de 72 217

DOMAINS WITH THE NEAREST RANK BY TLD .com.ar

Domain Rank
loteriasmundiales.com.ar 65 775
quepasasalta.com.ar 67 188
foxsports.com.ar 67 328
turismocity.com.ar 70 952
ellitoral.com.ar 71 642
paginasblancas.com.ar 72 212
bancor.com.ar 73 192
autocosmos.com.ar 73 313
naturacosmeticos.com.ar 73 400
demotores.com.ar 73 428
omnilineas.com.ar 73 812